[[{"header":{"parameterUnit":"m.s-1","parameterCategory":1,"la1":30.2991,"la2":30.254,"lo1":-89.0895,"lo2":-89.0444,"dy":0.0017,"dx":0.0017,"nx":28,"ny":28,"refTime":"2023-08-31T09:00:00:Z","depth":0,"parameterNumber":2,"parameterNumberName":"U-component_of_WINDS"},"data":[0,0,0,0,0,0,0,0,0,0,0,0,0,0,0,0,0,0,0,0,0,0,0,0,0,0,0,0,0,0,0,0,0,0,0,0,0,0,0,0,0,0,0,0,0,0,0,0,0,0,0,0,0,0,0,0,0,0,-0.459,-0.459,0,-0.4562,-0.4562,-0.4562,-0.4557,-0.4557,-0.4557,-0.4558,-0.4529,-0.4528,-0.4527,0,0,0,0,0,0,0,0,0,0,0,0,0,-0.4639,-0.4639,-0.4591,-0.459,-0.459,-0.4562,-0.4562,-0.4562,-0.4557,-0.4557,-0.4557,-0.4558,-0.4529,-0.4528,-0.4527,0,0,0,0,0,0,0,0,0,0,0,0,0,-0.4615,-0.4638,-0.4591,-0.4584,-0.4583,-0.4562,-0.4562,-0.4561,-0.4557,-0.4557,-0.4558,-0.4558,-0.453,-0.4528,-0.4527,-0.451,0,0,-0.4522,-0.4521,0,0,0,0,0,0,0,0,-0.4617,-0.4614,-0.4585,-0.4585,-0.4584,-0.4563,-0.4569,-0.4544,-0.4557,-0.4567,-0.4558,-0.4558,-0.454,-0.4538,-0.4532,-0.4509,-0.4508,-0.4522,-0.4521,-0.452,-0.452,0,0,0,0,0,0,0,-0.4618,-0.4615,-0.4579,-0.4585,-0.4584,-0.4582,-0.4579,-0.4564,-0.4552,-0.4566,-0.4566,-0.4562,-0.454,-0.4533,-0.4531,-0.4507,-0.4522,-0.4521,-0.452,-0.4519,-0.4468,-0.4467,0,0,0,0,0,0,-0.4621,-0.4616,-0.458,-0.4578,-0.4601,-0.4581,-0.4578,-0.457,-0.4552,-0.455,-0.4562,-0.4562,-0.4535,-0.4533,-0.453,-0.4508,-0.452,-0.4519,-0.4518,-0.4468,-0.4468,-0.4467,0,0,0,0,0,0,-0.4622,-0.4618,-0.4581,-0.4597,-0.4592,-0.458,-0.4571,-0.4569,-0.4562,-0.4549,-0.4547,-0.4558,-0.4536,-0.4532,-0.4515,-0.4507,-0.4518,-0.4517,-0.4469,-0.4468,-0.4467,-0.4465,0,0,0,0,0,0,-0.4624,-0.4619,-0.4613,-0.4597,-0.4592,-0.4567,-0.457,-0.4568,-0.456,-0.456,-0.4544,-0.4542,-0.4536,-0.4517,-0.4513,-0.4505,-0.4516,-0.4469,-0.4468,-0.4467,-0.4466,-0.4465,-0.4464,0,0,0,0,0,-0.4626,-0.4614,-0.4612,-0.4608,-0.4584,-0.4567,-0.4563,-0.4556,-0.4559,-0.4553,-0.4544,-0.4542,-0.4509,-0.4515,-0.4511,-0.4502,-0.447,-0.4469,-0.4468,-0.4467,-0.4465,-0.4464,0,0,0,0,0,0,-0.4629,-0.4611,-0.461,-0.4592,-0.4581,-0.4566,-0.4557,-0.4555,-0.4542,-0.4543,-0.4535,-0.4531,-0.4514,-0.4507,-0.4514,-0.4485,-0.4489,-0.4487,-0.449,-0.4488,-0.4487,-0.4489,-0.4515,0,0,0,0,0,-0.4627,-0.4615,-0.4601,-0.4586,-0.4581,-0.457,-0.4562,-0.4558,-0.4545,-0.4541,-0.4531,-0.4519,-0.4505,-0.4497,-0.4484,-0.4465,-0.4461,-0.4457,-0.4456,-0.4455,-0.4453,-0.4441,-0.4439,-0.4463,-0.4464,-0.4464,0,0,-0.4624,-0.4613,-0.4606,-0.4587,-0.4577,-0.4564,-0.4566,-0.4552,-0.4542,-0.4539,-0.4521,-0.4513,-0.4499,-0.4481,-0.4473,-0.4474,-0.4445,-0.4454,-0.4453,-0.4452,-0.444,-0.4438,-0.4436,-0.4463,-0.4463,-0.4463,0,0,-0.4612,-0.4603,-0.459,-0.458,-0.4565,-0.4558,-0.4555,-0.454,-0.4534,-0.4517,-0.4513,-0.4501,-0.4478,-0.4468,-0.446,-0.4442,-0.444,-0.4439,-0.4432,-0.442,-0.4418,-0.4416,-0.4409,-0.4406,-0.4437,-0.4437,-0.4437,0,-0.461,-0.459,-0.4583,-0.4569,-0.456,-0.4556,-0.4542,-0.4533,-0.4515,-0.4508,-0.4511,-0.4481,-0.4472,-0.445,-0.4446,-0.444,-0.4435,-0.444,-0.4419,-0.4417,-0.4416,-0.4408,-0.4405,-0.4437,-0.4437,-0.4437,-0.4437,0,-0.4588,-0.4574,-0.4565,-0.4547,-0.4537,-0.4524,-0.4514,-0.4504,-0.45,-0.4493,-0.4474,-0.4462,-0.4446,-0.4441,-0.4437,-0.4418,-0.442,-0.4421,-0.4425,-0.4413,-0.4406,-0.4403,-0.4436,-0.4436,-0.4436,-0.4437,0,0,-0.4578,-0.4555,-0.4551,-0.4543,-0.4526,-0.4515,-0.45,-0.4484,-0.4475,-0.4463,-0.445,-0.443,-0.4431,-0.4421,-0.4417,-0.4407,-0.4392,-0.4409,-0.4408,-0.4405,-0.4368,-0.4367,-0.4364,-0.439,-0.439,-0.4389,-0.4369,0,-0.4562,-0.4536,-0.4528,-0.4506,-0.4492,-0.4487,-0.4475,-0.4462,-0.4455,-0.4442,-0.4433,-0.4419,-0.4421,-0.4415,-0.4405,-0.4396,-0.4384,-0.4397,-0.4377,-0.4377,-0.438,-0.436,-0.4359,-0.434,-0.4366,-0.4366,-0.4366,0,-0.4541,-0.4528,-0.4504,-0.4487,-0.4481,-0.447,-0.4453,-0.4441,-0.4427,-0.4422,-0.4411,-0.4406,-0.439,-0.4396,-0.4373,-0.4382,-0.4373,-0.4367,-0.4366,-0.4363,-0.437,-0.4356,-0.4335,-0.4331,-0.4361,-0.4362,-0.4362,0,-0.4534,-0.451,-0.4492,-0.4485,-0.4465,-0.4457,-0.4449,-0.4435,-0.4425,-0.4411,-0.4404,-0.4389,-0.438,-0.4367,-0.4359,-0.4364,-0.4336,-0.4341,-0.433,-0.433,-0.4324,-0.4324,-0.43,-0.432,-0.432,-0.4321,-0.4321,0,-0.4518,-0.4503,-0.4488,-0.4477,-0.446,-0.4451,-0.4435,-0.4426,-0.4413,-0.44,-0.4395,-0.4383,-0.4372,-0.4358,-0.4351,-0.4332,-0.4329,-0.4324,-0.4322,-0.4323,-0.4324,-0.4317,-0.4317,-0.432,-0.432,-0.432,-0.432,0,-0.4507,-0.4497,-0.4476,-0.4459,-0.4454,-0.4442,-0.4428,-0.4416,-0.4408,-0.4391,-0.4386,-0.4373,-0.4356,-0.4346,-0.4325,-0.4321,-0.4299,-0.4299,-0.4304,-0.4303,-0.4292,-0.4292,-0.4261,-0.4256,-0.4281,-0.4281,-0.4281,0,-0.4496,-0.4485,-0.4466,-0.4456,-0.4447,-0.4432,-0.4422,-0.4413,-0.4402,-0.4384,-0.4375,-0.4357,-0.4343,-0.4316,-0.4304,-0.4287,-0.4286,-0.4276,-0.4283,-0.4284,-0.4284,-0.4284,-0.4282,-0.4274,-0.4274,-0.4274,-0.4274,0,-0.4479,-0.4474,-0.4459,-0.4442,-0.443,-0.4416,-0.4403,-0.4395,-0.4383,-0.4371,-0.4353,-0.4342,-0.432,-0.4302,-0.4284,-0.4275,-0.4272,-0.4272,-0.4268,-0.4269,-0.4272,-0.4269,-0.4299,-0.4272,-0.4272,-0.4272,-0.4272,-0.4273,-0.4467,-0.4456,-0.444,-0.4423,-0.4412,-0.4399,-0.4387,-0.4376,-0.4361,-0.4342,-0.4338,-0.4318,-0.4303,-0.4279,-0.4269,-0.4254,-0.4255,-0.425,-0.4249,-0.4248,-0.4246,-0.4275,-0.4251,-0.4251,-0.4251,-0.4251,-0.4251,0,-0.4448,-0.4437,-0.4422,-0.4402,-0.4389,-0.4387,-0.4371,-0.436,-0.4343,-0.4329,-0.4315,-0.4293,-0.4276,-0.4262,-0.4244,-0.4234,-0.4232,-0.423,-0.423,-0.4228,-0.4247,-0.4251,-0.4232,-0.4232,-0.4232,-0.4232,-0.4232,-0.4232,-0.4436,-0.4416,-0.4409,-0.4383,-0.4373,-0.4354,-0.4345,-0.4332,-0.4321,-0.4297,-0.4282,-0.4274,-0.4259,-0.424,-0.4223,-0.422,-0.4213,-0.421,-0.4206,-0.4224,-0.4226,-0.4228,-0.4232,-0.4209,-0.4209,-0.4188,-0.4188,-0.4188]},{"header":{"parameterUnit":"m.s-1","parameterCategory":1,"la1":30.2991,"la2":30.254,"lo1":-89.0895,"lo2":-89.0444,"dy":0.0017,"dx":0.0017,"nx":28,"ny":28,"refTime":"2023-08-31T09:00:00:Z","depth":0,"parameterNumber":3,"parameterNumberName":"V-component_of_WINDS"},"data":[0,0,0,0,0,0,0,0,0,0,0,0,0,0,0,0,0,0,0,0,0,0,0,0,0,0,0,0,0,0,0,0,0,0,0,0,0,0,0,0,0,0,0,0,0,0,0,0,0,0,0,0,0,0,0,0,0,0,1.8181,1.8181,0,1.8218,1.8219,1.8219,1.8234,1.8234,1.8234,1.8234,1.8272,1.8273,1.8274,0,0,0,0,0,0,0,0,0,0,0,0,0,1.8122,1.8123,1.8181,1.8181,1.8182,1.8218,1.8219,1.8219,1.8234,1.8234,1.8234,1.8234,1.8272,1.8273,1.8274,0,0,0,0,0,0,0,0,0,0,0,0,0,1.8152,1.8123,1.8181,1.8193,1.8195,1.8218,1.8219,1.8219,1.8234,1.8234,1.8234,1.8234,1.8271,1.8273,1.8275,1.8288,0,0,1.828,1.828,0,0,0,0,0,0,0,0,1.8151,1.8154,1.8191,1.8193,1.8194,1.8221,1.8212,1.8242,1.8234,1.8219,1.8234,1.8234,1.8255,1.8258,1.8266,1.8289,1.8291,1.828,1.8281,1.8282,1.8282,0,0,0,0,0,0,0,1.8148,1.8153,1.8196,1.8192,1.8194,1.8197,1.8201,1.8218,1.8238,1.822,1.8222,1.8226,1.8256,1.8264,1.8267,1.8292,1.828,1.8281,1.8282,1.8283,1.8329,1.8329,0,0,0,0,0,0,1.8144,1.8151,1.8194,1.8197,1.8172,1.8199,1.8203,1.8213,1.8237,1.8241,1.8226,1.8226,1.8261,1.8265,1.8268,1.8286,1.8281,1.8283,1.8284,1.8329,1.8329,1.8329,0,0,0,0,0,0,1.8143,1.8148,1.8193,1.8174,1.818,1.82,1.821,1.8214,1.8221,1.8242,1.8245,1.823,1.8261,1.8266,1.8283,1.8287,1.8284,1.8285,1.8328,1.8329,1.8329,1.832,0,0,0,0,0,0,1.8141,1.8147,1.8152,1.8174,1.8181,1.8207,1.8211,1.8214,1.8224,1.8225,1.8247,1.825,1.8261,1.828,1.8284,1.8289,1.8287,1.8328,1.8329,1.8329,1.832,1.832,1.832,0,0,0,0,0,1.8139,1.8148,1.8153,1.8158,1.8188,1.8207,1.8211,1.8224,1.8224,1.823,1.8243,1.8249,1.8286,1.8282,1.8287,1.8292,1.8328,1.8328,1.8329,1.832,1.832,1.832,0,0,0,0,0,0,1.8126,1.8151,1.8156,1.8173,1.8188,1.8209,1.8217,1.8223,1.8238,1.8239,1.8254,1.8259,1.8275,1.8285,1.828,1.8307,1.8307,1.8309,1.8299,1.8299,1.8299,1.8297,1.8288,0,0,0,0,0,1.8125,1.8139,1.816,1.8173,1.818,1.8197,1.8206,1.8214,1.823,1.8237,1.8251,1.8266,1.8281,1.8291,1.8306,1.8322,1.8327,1.8328,1.8328,1.8328,1.8329,1.8339,1.834,1.8331,1.8331,1.8331,0,0,1.8124,1.8139,1.8147,1.8171,1.8183,1.8197,1.8202,1.8216,1.8227,1.8239,1.8256,1.8267,1.8285,1.8302,1.831,1.8311,1.8333,1.8329,1.8328,1.833,1.834,1.8341,1.8342,1.8331,1.8331,1.8331,0,0,1.8128,1.8141,1.8153,1.8165,1.8184,1.8196,1.8199,1.822,1.8227,1.8245,1.8255,1.8267,1.8293,1.8305,1.8315,1.8325,1.8332,1.8329,1.8329,1.8339,1.834,1.8341,1.8345,1.8346,1.833,1.833,1.833,0,1.8123,1.8145,1.8158,1.8172,1.8183,1.8194,1.8207,1.8219,1.8241,1.8248,1.8249,1.8282,1.8295,1.8315,1.8318,1.8325,1.8329,1.8327,1.8339,1.8339,1.834,1.8345,1.8346,1.833,1.833,1.833,1.833,0,1.8138,1.8153,1.8161,1.8183,1.8194,1.8207,1.8223,1.8233,1.8241,1.8252,1.827,1.8286,1.8305,1.831,1.8318,1.8332,1.8332,1.8335,1.8337,1.8341,1.8345,1.8347,1.8329,1.8329,1.833,1.833,0,0,1.8136,1.8165,1.8168,1.8178,1.82,1.8212,1.8226,1.8244,1.8253,1.8268,1.828,1.8302,1.8305,1.8316,1.8326,1.8334,1.8342,1.8337,1.8337,1.8338,1.8359,1.8357,1.8359,1.8346,1.8347,1.8347,1.8358,0,1.8143,1.8169,1.8182,1.8202,1.8215,1.8227,1.8239,1.8254,1.8265,1.8279,1.8291,1.8307,1.831,1.8317,1.8325,1.8339,1.8347,1.8338,1.8359,1.8359,1.8354,1.8361,1.8358,1.8368,1.836,1.836,1.836,0,1.8155,1.8171,1.8192,1.8213,1.822,1.823,1.8249,1.8261,1.8279,1.8286,1.8299,1.8308,1.8324,1.8324,1.8346,1.834,1.8349,1.8357,1.8358,1.8361,1.836,1.8365,1.8372,1.8373,1.8363,1.8363,1.8363,0,1.8152,1.8178,1.8194,1.8203,1.8228,1.8235,1.8246,1.8263,1.8274,1.829,1.8297,1.8314,1.8324,1.8338,1.8352,1.835,1.8373,1.8374,1.838,1.838,1.8385,1.8384,1.8394,1.8389,1.8389,1.8389,1.8389,0,1.8159,1.8172,1.8193,1.8203,1.8218,1.8233,1.8248,1.8259,1.8275,1.8288,1.8299,1.831,1.8328,1.8342,1.8353,1.8371,1.8375,1.8382,1.8385,1.8381,1.838,1.8388,1.8388,1.839,1.839,1.839,1.839,0,1.8158,1.8172,1.8191,1.8213,1.8219,1.8229,1.8248,1.8259,1.8271,1.8287,1.8292,1.831,1.8328,1.8343,1.8366,1.8374,1.8392,1.8395,1.8386,1.8388,1.8393,1.8393,1.8409,1.8412,1.8404,1.8405,1.8405,0,1.8161,1.8172,1.8195,1.8205,1.8215,1.823,1.8241,1.8256,1.8267,1.8288,1.8296,1.8315,1.833,1.8358,1.8374,1.8392,1.8396,1.84,1.8399,1.8395,1.8397,1.8396,1.8398,1.84,1.84,1.84,1.84,0,1.8167,1.8174,1.8189,1.8207,1.822,1.8235,1.825,1.8257,1.8275,1.8287,1.8305,1.8317,1.8341,1.836,1.838,1.8391,1.8399,1.8401,1.8403,1.84,1.8395,1.8399,1.8387,1.84,1.84,1.84,1.84,1.84,1.8169,1.8179,1.8197,1.8214,1.8227,1.8241,1.8252,1.8266,1.8281,1.8302,1.831,1.8328,1.8347,1.8374,1.8386,1.8401,1.8402,1.8406,1.8407,1.8408,1.8408,1.8392,1.8405,1.8405,1.8405,1.8405,1.8405,0,1.8176,1.8188,1.8203,1.8225,1.8238,1.8244,1.8261,1.8272,1.8289,1.8305,1.832,1.8341,1.8359,1.8377,1.8396,1.8405,1.8409,1.841,1.841,1.8412,1.8405,1.8401,1.8406,1.8406,1.8406,1.8406,1.8406,1.8406,1.8181,1.8198,1.8207,1.8232,1.8244,1.8262,1.8272,1.8285,1.8298,1.8322,1.8337,1.8348,1.8365,1.8386,1.8403,1.8408,1.8415,1.8414,1.842,1.8413,1.8413,1.8412,1.8409,1.8416,1.8416,1.8427,1.8427,1.8427]}]]